When you browse on this site, cookies collect data to enhance your experience and personalize the content and advertising you see.
Visit our Privacy Policy to learn more. By continuing to use the site, you agree to this use of cookies and data.
  • In Spain
  • List of Countries
  • For 7 days
  • Water Temperature
  • Weather Map
  • Weather Widgets
  • user-avatar
    Login

    Hourly Weather Baden-Baden

    Today, 6 December, Friday

    Time Temperature Precipitation Wind Pressure Humidity
    00:00 -2°C° 0 mm 2 mps 733 mmHg 59%
    01:00 -2°C° 0 mm 2 mps 733 mmHg 59%
    02:00 -2°C° 0 mm 2 mps 733 mmHg 59%
    03:00 -2°C° 0 mm 2 mps 733 mmHg 59%
    04:00 -2°C° 0 mm 2 mps 732 mmHg 59%
    05:00 -2°C° 0 mm 2 mps 732 mmHg 58%
    06:00 -2°C° 0 mm 2 mps 732 mmHg 58%
    07:00 -2°C° 0 mm 2 mps 732 mmHg 57%
    08:00 -1°C° 0 mm 2 mps 732 mmHg 56%
    09:00 +1°C° 0 mm 2 mps 732 mmHg 55%
    10:00 +2°C° 0 mm 2 mps 732 mmHg 53%
    11:00 +2°C° 0 mm 3 mps 731 mmHg 52%
    12:00 +4°C° 0 mm 3 mps 731 mmHg 51%
    13:00 +5°C° 0 mm 3 mps 731 mmHg 50%
    14:00 +4°C° 0 mm 3 mps 730 mmHg 55%
    15:00 +4°C° 0 mm 3 mps 729 mmHg 59%
    16:00 +3°C° 0 mm 3 mps 729 mmHg 64%
    17:00 +3°C° 0 mm 4 mps 729 mmHg 65%
    18:00 +3°C° 0 mm 4 mps 729 mmHg 67%
    19:00 +3°C° 0 mm 4 mps 729 mmHg 69%
    20:00 +2°C° 0.2 mm 5 mps 728 mmHg 71%
    21:00 +2°C° 0.2 mm 5 mps 728 mmHg 72%
    22:00 +2°C° 0.2 mm 6 mps 728 mmHg 74%
    23:00 +2°C° 0.8 mm 6 mps 728 mmHg 79%

    Tomorrow, 7 December, Saturday

    Time Temperature Precipitation Wind Pressure Humidity
    00:00 +3°C° 0.8 mm 6 mps 728 mmHg 84%
    01:00 +3°C° 0.8 mm 6 mps 728 mmHg 89%
    02:00 +3°C° 0.5 mm 6 mps 728 mmHg 90%
    03:00 +4°C° 0.5 mm 6 mps 728 mmHg 90%
    04:00 +4°C° 0.5 mm 6 mps 728 mmHg 90%
    05:00 +4°C° 0.1 mm 6 mps 728 mmHg 90%
    06:00 +5°C° 0.1 mm 5 mps 729 mmHg 90%
    07:00 +5°C° 0.1 mm 5 mps 729 mmHg 90%
    08:00 +5°C° 0 mm 5 mps 730 mmHg 89%
    09:00 +5°C° 0 mm 5 mps 730 mmHg 89%
    10:00 +5°C° 0 mm 4 mps 730 mmHg 88%
    11:00 +6°C° 0 mm 5 mps 730 mmHg 86%
    12:00 +6°C° 0 mm 5 mps 730 mmHg 83%
    13:00 +7°C° 0 mm 5 mps 730 mmHg 81%
    14:00 +6°C° 0 mm 4 mps 730 mmHg 82%
    15:00 +6°C° 0 mm 4 mps 730 mmHg 84%
    16:00 +6°C° 0 mm 4 mps 730 mmHg 85%
    17:00 +5°C° 0 mm 4 mps 730 mmHg 86%
    18:00 +5°C° 0 mm 4 mps 731 mmHg 88%
    19:00 +5°C° 0 mm 4 mps 731 mmHg 89%
    20:00 +5°C° 0 mm 4 mps 731 mmHg 89%
    21:00 +5°C° 0 mm 4 mps 731 mmHg 88%
    22:00 +5°C° 0 mm 4 mps 731 mmHg 88%
    23:00 +5°C° 0 mm 4 mps 731 mmHg 89%

    Day after tomorrow, 8 December, Sunday

    Time Temperature Precipitation Wind Pressure Humidity
    00:00 +4°C° 0 mm 4 mps 731 mmHg 89%
    01:00 +4°C° 0 mm 4 mps 731 mmHg 90%
    02:00 +4°C° 0 mm 4 mps 730 mmHg 89%
    03:00 +4°C° 0 mm 4 mps 730 mmHg 89%
    04:00 +4°C° 0 mm 4 mps 729 mmHg 88%
    05:00 +4°C° 0 mm 4 mps 729 mmHg 87%
    06:00 +3°C° 0 mm 5 mps 728 mmHg 87%
    07:00 +3°C° 0 mm 5 mps 728 mmHg 86%
    08:00 +4°C° 0 mm 6 mps 728 mmHg 85%
    09:00 +4°C° 0 mm 6 mps 728 mmHg 84%
    10:00 +5°C° 0 mm 6 mps 727 mmHg 82%
    11:00 +5°C° 0.2 mm 7 mps 727 mmHg 82%
    12:00 +6°C° 0.2 mm 7 mps 726 mmHg 81%
    13:00 +6°C° 0.2 mm 7 mps 725 mmHg 81%
    14:00 +6°C° 0.4 mm 7 mps 725 mmHg 83%
    15:00 +6°C° 0.4 mm 7 mps 724 mmHg 84%
    16:00 +6°C° 0.4 mm 7 mps 724 mmHg 86%
    17:00 +6°C° 0.1 mm 7 mps 724 mmHg 86%
    18:00 +6°C° 0.1 mm 7 mps 724 mmHg 85%
    19:00 +8°C° 0.1 mm 7 mps 724 mmHg 85%
    20:00 +6°C° 0.3 mm 7 mps 724 mmHg 85%
    21:00 +7°C° 0.3 mm 6 mps 723 mmHg 85%
    22:00 +7°C° 0.3 mm 6 mps 723 mmHg 85%
    23:00 +6°C° 0.3 mm 7 mps 723 mmHg 83%

    9 December, Monday

    Time Temperature Precipitation Wind Pressure Humidity
    00:00 +5°C° 0.3 mm 7 mps 723 mmHg 81%
    01:00 +5°C° 0.3 mm 8 mps 722 mmHg 80%
    02:00 +4°C° 0.7 mm 8 mps 722 mmHg 83%
    03:00 +4°C° 0.7 mm 8 mps 722 mmHg 85%
    04:00 +2°C° 0.7 mm 8 mps 721 mmHg 88%
    05:00 +2°C° 0.4 mm 8 mps 721 mmHg 86%
    06:00 +2°C° 0.4 mm 8 mps 720 mmHg 84%
    07:00 +2°C° 0.4 mm 8 mps 720 mmHg 82%
    08:00 +2°C° 0.6 mm 8 mps 720 mmHg 83%
    09:00 +2°C° 0.6 mm 8 mps 719 mmHg 85%
    10:00 +2°C° 0.6 mm 8 mps 719 mmHg 86%
    11:00 +2°C° 0.9 mm 8 mps 719 mmHg 86%
    12:00 +2°C° 0.9 mm 8 mps 719 mmHg 85%
    13:00 +2°C° 0.9 mm 7 mps 719 mmHg 85%
    14:00 +3°C° 0.3 mm 7 mps 719 mmHg 84%
    15:00 +3°C° 0.3 mm 7 mps 719 mmHg 82%
    16:00 +3°C° 0.3 mm 7 mps 719 mmHg 81%
    17:00 +2°C° 1.1 mm 6 mps 719 mmHg 85%
    18:00 +2°C° 1.1 mm 5 mps 719 mmHg 88%
    19:00 +3°C° 1.1 mm 4 mps 720 mmHg 92%
    20:00 +2°C° 0.3 mm 5 mps 720 mmHg 91%
    21:00 +2°C° 0.3 mm 5 mps 721 mmHg 89%
    22:00 +2°C° 0.3 mm 5 mps 722 mmHg 88%
    23:00 +2°C° 0.3 mm 6 mps 723 mmHg 85%

    10 December, Tuesday

    Time Temperature Precipitation Wind Pressure Humidity
    00:00 +2°C° 0.3 mm 6 mps 724 mmHg 83%
    01:00 +2°C° 0.3 mm 7 mps 725 mmHg 81%
    02:00 0°C° 0.1 mm 7 mps 726 mmHg 81%
    03:00 0°C° 0.1 mm 7 mps 728 mmHg 81%
    04:00 -1°C° 0.1 mm 6 mps 729 mmHg 82%
    05:00 -1°C° 0.1 mm 6 mps 730 mmHg 81%
    06:00 -1°C° 0.1 mm 6 mps 731 mmHg 81%
    07:00 -1°C° 0.1 mm 6 mps 732 mmHg 81%
    08:00 0°C° 0.1 mm 5 mps 733 mmHg 82%
    09:00 0°C° 0.1 mm 5 mps 734 mmHg 82%
    10:00 0°C° 0.1 mm 5 mps 735 mmHg 83%
    11:00 +1°C° 0 mm 5 mps 735 mmHg 80%
    12:00 +1°C° 0 mm 5 mps 735 mmHg 76%
    13:00 +2°C° 0 mm 5 mps 735 mmHg 72%
    14:00 +1°C° 0 mm 4 mps 735 mmHg 74%
    15:00 +2°C° 0 mm 3 mps 735 mmHg 76%
    16:00 +2°C° 0 mm 3 mps 735 mmHg 78%
    17:00 +1°C° 0 mm 3 mps 735 mmHg 81%
    18:00 +1°C° 0 mm 2 mps 734 mmHg 83%
    19:00 -1°C° 0 mm 2 mps 734 mmHg 85%
    20:00 -1°C° 0 mm 2 mps 733 mmHg 83%
    21:00 -1°C° 0 mm 2 mps 733 mmHg 81%
    22:00 -1°C° 0 mm 2 mps 732 mmHg 79%
    23:00 0°C° 0 mm 3 mps 732 mmHg 76%

    11 December, Wednesday

    Time Temperature Precipitation Wind Pressure Humidity
    00:00 0°C° 0 mm 3 mps 731 mmHg 74%
    01:00 0°C° 0 mm 3 mps 730 mmHg 72%
    02:00 +1°C° 0 mm 3 mps 729 mmHg 68%
    03:00 0°C° 0 mm 4 mps 728 mmHg 65%
    04:00 0°C° 0 mm 4 mps 727 mmHg 62%
    05:00 0°C° 0.4 mm 4 mps 727 mmHg 67%
    06:00 0°C° 0.4 mm 4 mps 726 mmHg 72%
    07:00 +1°C° 0.4 mm 3 mps 726 mmHg 77%
    08:00 +1°C° 1 mm 4 mps 726 mmHg 82%
    09:00 +3°C° 1 mm 4 mps 726 mmHg 86%
    10:00 +2°C° 1 mm 5 mps 726 mmHg 91%
    11:00 +2°C° 0.5 mm 5 mps 726 mmHg 91%
    12:00 +2°C° 0.5 mm 5 mps 727 mmHg 91%
    13:00 +2°C° 0.5 mm 5 mps 727 mmHg 90%
    14:00 +2°C° 0.1 mm 5 mps 727 mmHg 87%
    15:00 +2°C° 0.1 mm 5 mps 728 mmHg 83%
    16:00 +2°C° 0.1 mm 5 mps 728 mmHg 80%
    17:00 +2°C° 0 mm 6 mps 728 mmHg 81%
    18:00 +2°C° 0 mm 6 mps 728 mmHg 81%
    19:00 0°C° 0 mm 7 mps 727 mmHg 82%
    20:00 +2°C° 0 mm 7 mps 727 mmHg 80%
    21:00 +2°C° 0 mm 7 mps 727 mmHg 78%
    22:00 +1°C° 0 mm 8 mps 726 mmHg 76%
    23:00 +1°C° 0 mm 8 mps 726 mmHg 76%
    Show more